User: anonymous   Login
Location: Radford
(37.1320°N, 80.5770°W)
Time: 04:30:59
(UTC-05:00)
Language:

Okean 1-7 - Orbit

View from above orbital plane
View from above orbital plane
View from above satellite
View from above satellite

Ground track
Ground track

The orbit data is extracted from the following two-line orbital elements,

1 23317U 94066A   18015.17060572  .00000205  00000-0  19769-4 0  9997
2 23317  82.5385 278.9431 0021342  81.7175 278.6461 14.87509003257458
Epoch (UTC): 15 January 2018 04:05:40
Eccentricity: 0.0021342
inclination: 82.5385°
perigee height: 591 km
apogee height: 620 km
right ascension of ascending node: 278.9431°
argument of perigee: 81.7175°
revolutions per day: 14.87509003
mean anomaly at epoch: 278.6461°
orbit number at epoch: 25745

The dashed part of the orbit path shows where the satellite is in the earth's shadow,  

DLR